Regional Weather Roundup
Issued by NWS New Orleans/Baton Rouge, LA

Home | Current Version | Previous Version | Graphics & Text | Print | Product List | Glossary On
Versions: 1 2 3 4 5 6 7 8 9 10 11 12 13 14 15 16 17 18 19 20 21 22 23 24 25 26 27 28 29 30 31 32 33 34 35 36 37 38 39 40 41 42 43 44 45 46 47 48 49 50
869
ASUS44 KLIX 272101
RWRLIX
NEW ORLEANS REGIONAL WEATHER ROUNDUP
NATIONAL WEATHER SERVICE NEW ORLEANS LA
300 PM CST THU NOV 27 2014

NOTE: "FAIR" INDICATES FEW OR NO CLOUDS BELOW 12,000 FEET WITH NO
      SIGNIFICANT WEATHER AND/OR OBSTRUCTIONS TO VISIBILITY.
      SKY/WX - SKY CONDITION AND SIGNIFICANT WEATHER.
      TMP - AIR TEMPERATURE.     DP    - DEWPOINT TEMPERATURE.
      RH  - RELATIVE HUMIDITY.   PRES  - PRESSURE.
      HI  - HEAT INDEX.          WCI   - WIND CHILL INDEX.

*  THESE STATIONS ARE NOT NWS OR FAA STATIONS AND ARE NOT UNDER
   NWS QUALITY CONTROL.

LAZ038-040-048-061>063-065>067-069-272200-
SOUTHEAST LOUISIANA

CITY           SKY/WX    TMP DP  RH WIND       PRES   REMARKS
N.O. AUDUBON   NOT AVBL
N.O. INTL ARPT MOSUNNY   61  32  33 N12       30.38S
N.O. LAKEFRONT SUNNY     61  40  45 NW9       30.39S
N.O. DOWNTOWN*   N/A     59  30  33 N6        30.39S
SLIDELL        SUNNY     61  27  27 N13       30.38R
BATON ROUGE    SUNNY     61  28  28 N10G17    30.40R
BOOTHVILLE     SUNNY     57  40  52 N9        30.37S
BELLE CHASSE   SUNNY     61  27  27 N10       30.37S
BOGALUSA*        N/A     60  28  29 N12       30.41R
NEW ROADS*     NOT AVBL
GONZALES*      NOT AVBL
HAMMOND*       NOT AVBL
HOUMA*         SUNNY     64  32  29 N10       30.37R
PORT FOURCHON* CLEAR     61  32  33 N12G20    30.40R

$$

MSZ070-080>082-272200-
SOUTHERN MISSISSIPPI

CITY           SKY/WX    TMP DP  RH WIND       PRES   REMARKS
MCCOMB         SUNNY     57  27  31 N13       30.41R
GULFPORT       SUNNY     60  29  30 N13G21    30.36S
BILOXI         SUNNY     59  29  32 N9        30.36S
PASCAGOULA     SUNNY     59  29  31 N14       30.36R
STENNIS ARPT*  SUNNY     61  21  21 N12       30.37S

$$

COASTAL OBSERVATIONS
LAKE AND NEARSHORE STATIONS

STATION/POSITION TIME  TEMP    WIND        PRES    WAVE
                       AIR SEA DIR/SP/G            HT/PER
                 (UTC) (F)     (DEG/KT/KT) (MB)    (FT/S)
PASCAGOULA       2000   61     340/  8/ 13 1027.2
WAVELAND YACHT   2000   58      10/ 13/ 16 1027.3
GRAND ISLE       2000   60 60   10/ 11/ 14 1028.7
SOUTHWEST PASS   2000   64                 1028.3
NEW CANAL        2000   56 55  360/  8/ 10 1029.1
SHELL BEACH      2000   57 53  330/ 11/ 12 1028.2

OFFSHORE STATIONS

STATION/POSITION TIME  TEMP    WIND        PRES    WAVE
                       AIR SEA DIR/SP/G            HT/PER
                 (UTC) (F)     (DEG/KT/KT) (MB)    (FT/S)
64 S DAUPHIN ISL 2048   58 71  360/ 19/ 23 1027.8    4/ 6

$$




USA.gov is the U.S. government's official web portal to all federal, state and local government web resources and services.